This demonstration page uses our WeatherBlox Daily Observations layout. Learn more.

Left ArrowRight Arrow

39.12711, -84.51439

Hourly Observations for September 13, 2016

Temp ( °F °C ) Dew Point ( °F °C ) Humidity (%) Winds ( mph kmh ) Pressure ( in mb ) Visibility ( mi km ) Precip ( " mm )
12:53 am 00:53 Clear 59 15 59 15 100 100 Calm 30.11 1020 8 13 0.00 0.00
1:53 am 01:53 Clear 57 13.9 57 13.9 100 100 Calm 30.11 1020 8 13 0.00 0.00
2:06 am 02:06 Clear with Mist and Fog 57 14 57 14 100 100 Calm 30.12 1020 2 3 0.00 0.00
2:17 am 02:17 Clear with Mist and Fog 58 14.4 58 14.4 100 100 Calm 30.12 1020 3 5 0.00 0.00
2:31 am 02:31 Clear with Mist and Fog 57 13.9 57 13.9 100 100 Calm 30.12 1020 3 4 0.00 0.00
2:40 am 02:40 Clear 57 14 57 14 100 100 Calm 30.12 1020 8 13 0.00 0.00
2:53 am 02:53 Clear with Mist and Fog 57 13.9 57 13.9 100 100 Calm 30.10 1019 5 8 0.00 0.00
3:13 am 03:13 Partly Cloudy with Mist and Fog 57 13.9 57 13.9 100 100 Calm 30.12 1020 4 6 0.00 0.00
3:21 am 03:21 Mostly Cloudy with Mist and Fog 58 14.4 58 14.4 100 100 Calm 30.12 1020 6 10 0.00 0.00
3:53 am 03:53 Cloudy 60 15.6 60 15.6 100 100 Calm 30.10 1019 9 14 0.00 0.00
4:03 am 04:03 Cloudy with Mist and Fog 61 16 61 16 100 100 Calm 30.09 1019 5 8 0.00 0.00
4:09 am 04:09 Cloudy with Mist and Fog 60 15.6 60 15.6 100 100 Calm 30.09 1019 2 3 0.00 0.00
4:21 am 04:21 Mostly Cloudy with Fog 59 15 59 15 100 100 Calm 30.12 1020 0 0 0.00 0.00
4:53 am 04:53 Mostly Cloudy with Fog 60 15.6 60 15.6 100 100 Calm 30.11 1020 5 8 0.00 0.00
5:53 am 05:53 Mostly Cloudy with Fog 59 15 59 15 100 100 Calm 30.11 1020 0 0 0.00 0.00
6:53 am 06:53 Mostly Cloudy with Fog 57 13.9 57 13.9 100 100 Calm 30.12 1020 0 0 0.00 0.00
7:53 am 07:53 Mostly Cloudy with Fog 58 14.4 58 14.4 100 100 Calm 30.14 1021 0 0 0.00 0.00
8:53 am 08:53 Partly Cloudy with Patchy Fog 60 15.6 60 15.6 100 100 Calm 30.15 1021 5 8 0.00 0.00
9:53 am 09:53 Sunny 66 18.9 64 17.8 93 93 Calm 30.16 1021 8 13 0.00 0.00
10:53 am 10:53 Sunny 72 22.2 64 17.8 76 76 Calm 30.16 1022 10 16 0.00 0.00
11:53 am 11:53 Sunny 78 25.6 60 15.6 54 54 VRB 3 6 30.16 1021 10 16 0.00 0.00
12:53 pm 12:53 Sunny 79 26.1 59 15 50 50 SW 6 9 30.15 1021 10 16 0.00 0.00
1:53 pm 13:53 Sunny 81 27.2 60 15.6 49 49 W 10 17 30.15 1021 10 16 0.00 0.00
2:53 pm 14:53 Sunny 81 27.2 59 15 47 47 W 9 15 30.13 1020 10 16 0.00 0.00
3:53 pm 15:53 Sunny 82 27.8 60 15.6 47 47 SW 5 7 30.11 1020 N/A 0.00 0.00
4:53 pm 16:53 Sunny 83 28.3 58 14.4 43 43 WSW 12 19 30.09 1019 10 16 0.00 0.00
5:53 pm 17:53 Sunny 81 27.2 57 13.9 44 44 WSW 7 11 30.09 1019 10 16 0.00 0.00
6:53 pm 18:53 Sunny 78 25.6 57 13.9 48 48 W 7 11 30.10 1019 10 16 0.00 0.00
7:53 pm 19:53 Clear 69 20.6 65 18.3 87 87 Calm 30.11 1020 10 16 0.00 0.00
8:53 pm 20:53 Clear 65 18.3 62 16.7 90 90 Calm 30.12 1020 10 16 0.00 0.00
9:53 pm 21:53 Clear 63 17.2 61 16.1 93 93 Calm 30.12 1020 10 16 0.00 0.00
10:53 pm 22:53 Clear 62 16.7 61 16.1 96 96 Calm 30.13 1020 10 16 0.00 0.00
11:53 pm 23:53 Clear 61 16.1 61 16.1 100 100 Calm 30.14 1021 10 16 0.00 0.00

Powered by AerisWeather